Simultaneous Nadir Overpasses (SNOs) Predictions

Prediction of SNOs between AQUA and METOP-A Satellite Orbit:

Table of predicted SNOs for the next 14.0 days since TLE Epoch: 11/2/2013
Index Date (AQUA) Time (AQUA) Lat,Lon (AQUA) SZA (AQUA ) Date (METOP-A) Time (METOP-A) Lat,Lon (METOP-A) SZA (METOP-A ) Distance(km) Time Diff (sec)
1 11/03/2013 19:07:31 -73.69, 67.61 91.11 11/03/2013 19:06:18 -73.64, 67.02 91.16 19.72 73
2 11/03/2013 19:57:02 73.86,-125.13 89.08 11/03/2013 19:56:53 73.86,-125.12 89.08 0.29 9
3 11/03/2013 20:46:29 -73.94, 42.35 90.84 11/03/2013 20:47:34 -73.91, 42.33 90.86 2.97 65
4 11/06/2013 14:41:53 -73.67, 134.08 90.28 11/06/2013 14:40:41 -73.56, 133.26 90.37 28.21 72
5 11/06/2013 15:31:23 73.84, -58.67 89.91 11/06/2013 15:31:14 73.84, -58.77 89.91 3.30 9
6 11/06/2013 16:20:50 -73.92, 108.81 90.01 11/06/2013 16:21:54 -73.94, 108.80 89.99 2.61 64
7 11/09/2013 10:16:13 -73.65,-159.46 89.49 11/09/2013 10:15:01 -73.58,-160.30 89.54 27.19 72
8 11/09/2013 11:05:45 73.88, 7.66 90.77 11/09/2013 11:05:35 73.85, 7.66 90.74 3.60 10
9 11/09/2013 11:55:12 -73.95, 175.15 89.16 11/09/2013 11:56:15 -73.95, 175.25 89.15 3.02 63
10 11/12/2013 05:50:34 -73.68, -93.12 88.67 11/12/2013 05:49:22 -73.58, -93.88 88.76 26.01 72
11 11/12/2013 06:40:05 73.86, 74.11 91.53 11/12/2013 06:39:56 73.85, 74.08 91.52 2.34 9
12 11/12/2013 07:29:32 -73.93,-118.39 88.40 11/12/2013 07:30:37 -73.91,-118.45 88.42 2.95 65
13 11/15/2013 01:24:54 -73.72, -26.78 87.89 11/15/2013 01:23:41 -73.68, -27.25 87.92 15.36 73
14 11/15/2013 02:14:24 73.85, 140.56 92.26 11/15/2013 02:14:17 73.84, 140.46 92.25 3.56 7
15 11/15/2013 03:03:51 -73.92, -51.94 87.67 11/15/2013 03:04:58 -73.90, -52.05 87.69 3.90 67




NCC Satellite Simultaneous Nadir Overpasses (SNOs) Prediction Service
